GW1454 Weather Reports


Display with metric or nautical units.
time (UTC)temp
F
wind
direction
speed
MPH
gust
MPH
rain 1hr
in
rain 24hr
in
rain mn
in
humidity
%
barometer
mb
20260902003100 78 0 0.0 0.0 0.00 0.00 0.00 83 1017.5
20260902002549 79 0 0.0 0.0 0.00 0.00 0.00 83 1017.6
20260902002045 79 0 0.0 0.0 0.00 0.00 0.00 83 1017.5
20260902001610 79 0 0.0 0.0 0.00 0.00 0.00 82 1017.5
20260902001046 80 0 0.0 0.0 0.00 0.00 0.00 82 1017.5
20260902000547 80 0 0.0 0.0 0.00 0.00 0.00 81 1017.5
20260901235545 81 0 0.0 0.0 0.00 0.00 0.00 80 1017.6
20260901235044 81 0 0.0 0.0 0.00 0.00 0.00 79 1017.6
20260901234609 82 0 0.0 0.0 0.00 0.00 0.00 79 1017.6
20260901234045 82 0 0.0 0.0 0.00 0.00 0.00 77 1017.6
20260901233545 83 0 0.0 0.0 0.00 0.00 0.00 76 1017.6
20260901233109 83 0 0.0 0.0 0.00 0.00 0.00 75 1017.7
20260901232551 84 0 0.0 0.0 0.00 0.00 0.00 72 1017.7
20260901232045 84 0 0.0 0.0 0.00 0.00 0.00 69 1017.8
20260901231554 85 0 0.0 0.0 0.00 0.00 0.00 68 1017.9
20260901231044 85 0 0.0 0.0 0.00 0.00 0.00 67 1017.9
20260901230545 86 0 0.0 0.0 0.00 0.00 0.00 66 1017.9
20260901230116 87 0 0.0 0.0 0.00 0.00 0.00 63 1017.8
20260901225549 87 0 0.0 0.0 0.00 0.00 0.00 62 1017.9
20260901225045 88 0 0.0 0.0 0.00 0.00 0.00 61 1017.9
20260901224557 89 0 0.0 0.0 0.00 0.00 0.00 59 1018.0
20260901224045 91 0 0.0 1.0 0.00 0.00 0.00 58 1017.9
20260901223546 92 0 0.0 1.0 0.00 0.00 0.00 54 1017.9
20260901223054 93 0 0.0 1.0 0.00 0.00 0.00 53 1017.8
20260901222545 94 0 0.0 1.0 0.00 0.00 0.00 50 1017.9
20260901222046 94 0 0.0 1.0 0.00 0.00 0.00 48 1017.8
20260901221557 94 0 0.0 2.0 0.00 0.00 0.00 52 1017.7
20260901221046 94 134 0.0 2.0 0.00 0.00 0.00 49 1017.8
20260901220547 94 134 0.0 2.0 0.00 0.00 0.00 49 1017.7
20260901220109 94 121 0.0 3.0 0.00 0.00 0.00 48 1017.7
20260901215547 94 120 1.0 3.0 0.00 0.00 0.00 47 1017.6
20260901215046 94 140 0.0 3.0 0.00 0.00 0.00 48 1017.6
20260901214606 95 111 0.0 3.0 0.00 0.00 0.00 46 1017.6
20260901214045 94 0 0.0 6.0 0.00 0.00 0.00 48 1017.7
20260901213546 94 148 0.0 6.0 0.00 0.00 0.00 47 1017.7
20260901213137 94 116 2.0 6.0 0.00 0.00 0.00 46 1017.8
20260901212547 94 124 2.0 6.0 0.00 0.00 0.00 47 1017.8
20260901212049 94 138 1.0 6.0 0.00 0.00 0.00 45 1017.8
20260901211553 94 146 1.0 6.0 0.00 0.00 0.00 44 1018.0
20260901211048 94 138 2.0 6.0 0.00 0.00 0.00 48 1017.9
20260901210545 94 139 1.0 6.0 0.00 0.00 0.00 44 1018.0
20260901210051 94 146 2.0 6.0 0.00 0.00 0.00 44 1017.9
20260901205547 94 137 1.0 4.0 0.00 0.00 0.00 45 1017.9
20260901205046 94 119 2.0 3.0 0.00 0.00 0.00 46 1017.9
20260901204602 95 104 0.0 3.0 0.00 0.00 0.00 43 1017.9
20260901204047 94 121 1.0 6.0 0.00 0.00 0.00 45 1018.0
20260901203549 94 84 1.0 6.0 0.00 0.00 0.00 46 1018.0
20260901203118 94 115 2.0 8.0 0.00 0.00 0.00 45 1018.0
20260901202545 94 121 1.0 8.0 0.00 0.00 0.00 48 1018.1
20260901202045 94 132 0.0 4.0 0.00 0.00 0.00 46 1018.0
20260901201558 94 156 1.0 4.0 0.00 0.00 0.00 45 1018.1
20260901201046 94 147 1.0 5.0 0.00 0.00 0.00 46 1018.2
20260901200546 94 160 2.0 5.0 0.00 0.00 0.00 45 1018.2
20260901200107 94 0 0.0 4.0 0.00 0.00 0.00 45 1018.1
20260901195545 94 160 1.0 5.0 0.00 0.00 0.00 44 1018.3
20260901195103 94 115 2.0 6.0 0.00 0.00 0.00 46 1018.3
20260901194606 94 140 2.0 7.0 0.00 0.00 0.00 47 1018.3
20260901194046 94 69 3.0 9.0 0.00 0.00 0.00 46 1018.4
20260901193546 94 143 3.0 9.0 0.00 0.00 0.00 49 1018.4
20260901193102 94 74 2.0 9.0 0.00 0.00 0.00 47 1018.5
20260901192603 94 338 1.0 5.0 0.00 0.00 0.00 46 1018.4
20260901192045 94 140 2.0 5.0 0.00 0.00 0.00 47 1018.5
20260901191620 94 91 2.0 5.0 0.00 0.00 0.00 45 1018.7
20260901191045 94 0 1.0 5.0 0.00 0.00 0.00 51 1018.8
20260901190545 94 144 1.0 4.0 0.00 0.00 0.00 50 1018.9
20260901185545 93 121 0.0 7.0 0.00 0.00 0.00 49 1018.9
20260901185048 93 162 3.0 7.0 0.00 0.00 0.00 49 1019.0
20260901184603 93 147 2.0 8.0 0.00 0.00 0.00 52 1019.1
20260901184047 93 30 2.0 8.0 0.00 0.00 0.00 52 1019.1
20260901183545 93 194 3.0 4.0 0.00 0.00 0.00 49 1019.2
20260901183106 93 166 0.0 6.0 0.00 0.00 0.00 55 1019.2
20260901182546 92 188 1.0 9.0 0.00 0.00 0.00 51 1019.2
20260901182046 92 106 1.0 9.0 0.00 0.00 0.00 50 1019.2
20260901181557 93 76 3.0 9.0 0.00 0.00 0.00 53 1019.2
20260901181045 93 66 1.0 4.0 0.00 0.00 0.00 53 1019.3
20260901180546 93 128 1.0 4.0 0.00 0.00 0.00 52 1019.2
20260901180106 92 139 1.0 7.0 0.00 0.00 0.00 52 1019.2
20260901175545 92 0 1.0 7.0 0.00 0.00 0.00 52 1019.4
20260901175047 92 78 1.0 7.0 0.00 0.00 0.00 51 1019.4
20260901174605 92 152 2.0 7.0 0.00 0.00 0.00 52 1019.4
20260901174044 92 91 2.0 8.0 0.00 0.00 0.00 51 1019.4
20260901173545 92 0 1.0 8.0 0.00 0.00 0.00 55 1019.5
20260901173057 91 0 3.0 8.0 0.00 0.00 0.00 53 1019.5
20260901172544 91 83 2.0 5.0 0.00 0.00 0.00 54 1019.5
20260901172044 92 150 2.0 4.0 0.00 0.00 0.00 55 1019.5
20260901171554 91 46 0.0 8.0 0.00 0.00 0.00 54 1019.5
20260901171043 91 97 2.0 8.0 0.00 0.00 0.00 54 1019.4
20260901170544 91 155 3.0 8.0 0.00 0.00 0.00 59 1019.5
20260901170105 91 141 1.0 6.0 0.00 0.00 0.00 59 1019.6
20260901165547 90 158 2.0 6.0 0.00 0.00 0.00 56 1019.6
20260901165044 90 103 2.0 4.0 0.00 0.00 0.00 57 1019.7
20260901164606 90 144 2.0 5.0 0.00 0.00 0.00 57 1019.8
20260901164047 90 149 3.0 6.0 0.00 0.00 0.00 58 1019.8
20260901163547 90 123 2.0 6.0 0.00 0.00 0.00 58 1019.8
20260901163103 90 55 2.0 6.0 0.00 0.00 0.00 59 1019.9
20260901162548 89 0 1.0 6.0 0.00 0.00 0.00 58 1019.9
20260901162043 90 146 1.0 6.0 0.00 0.00 0.00 59 1020.0
20260901161558 89 121 2.0 6.0 0.00 0.00 0.00 61 1020.0
20260901161047 89 0 1.0 3.0 0.00 0.00 0.00 63 1020.1
20260901160547 89 200 1.0 7.0 0.00 0.00 0.00 61 1020.1
20260901160104 89 0 3.0 7.0 0.00 0.00 0.00 68 1020.3
20260901155544 89 114 2.0 4.0 0.00 0.00 0.00 62 1020.3
20260901155045 89 0 1.0 4.0 0.00 0.00 0.00 62 1020.3
20260901154604 88 165 1.0 4.0 0.00 0.00 0.00 65 1020.5
20260901154044 89 128 1.0 4.0 0.00 0.00 0.00 63 1020.4
20260901153544 88 138 1.0 4.0 0.00 0.00 0.00 65 1020.5
20260901153117 88 0 0.0 2.0 0.00 0.00 0.00 66 1020.6
20260901152543 87 0 0.0 4.0 0.00 0.00 0.00 67 1020.6
20260901152050 87 182 0.0 4.0 0.00 0.00 0.00 68 1020.7
20260901151604 86 119 1.0 5.0 0.00 0.00 0.00 68 1020.8
20260901151045 86 123 2.0 5.0 0.00 0.00 0.00 68 1020.7
20260901150547 86 121 2.0 5.0 0.00 0.00 0.00 68 1020.8
20260901145544 86 0 0.0 3.0 0.00 0.00 0.00 70 1020.8
20260901145045 85 109 0.0 6.0 0.00 0.00 0.00 72 1020.9
20260901144601 85 178 2.0 6.0 0.00 0.00 0.00 71 1020.8
20260901144044 85 219 0.0 2.0 0.00 0.00 0.00 72 1020.8
20260901143547 85 0 1.0 4.0 0.00 0.00 0.00 72 1020.8
20260901143057 84 163 1.0 7.0 0.00 0.00 0.00 74 1020.9
20260901142543 84 130 1.0 7.0 0.00 0.00 0.00 73 1020.8
20260901142045 84 172 0.0 4.0 0.00 0.00 0.00 73 1020.9
20260901141604 84 161 1.0 6.0 0.00 0.00 0.00 74 1020.7
20260901141045 83 0 0.0 6.0 0.00 0.00 0.00 76 1020.8
20260901140550 83 0 2.0 6.0 0.00 0.00 0.00 75 1020.8
20260901140110 83 148 1.0 4.0 0.00 0.00 0.00 76 1020.7
20260901135544 82 0 0.0 3.0 0.00 0.00 0.00 78 1020.7
20260901135044 82 123 0.0 3.0 0.00 0.00 0.00 78 1020.7
20260901134609 82 177 0.0 3.0 0.00 0.00 0.00 78 1020.7
20260901134044 81 0 0.0 4.0 0.00 0.00 0.00 80 1020.7
20260901133545 81 141 1.0 4.0 0.00 0.00 0.00 80 1020.6
20260901133110 81 161 0.0 3.0 0.00 0.00 0.00 81 1020.7
20260901132550 80 137 0.0 3.0 0.00 0.00 0.00 81 1020.6
20260901132045 80 150 1.0 3.0 0.00 0.00 0.00 81 1020.8
20260901131559 80 117 0.0 3.0 0.00 0.00 0.00 82 1020.8
20260901131047 80 0 0.0 0.0 0.00 0.00 0.00 84 1020.7
20260901130545 79 0 0.0 0.0 0.00 0.00 0.00 84 1020.6
20260901125544 78 0 0.0 0.0 0.00 0.00 0.00 87 1020.7
20260901125044 78 0 0.0 0.0 0.00 0.00 0.00 87 1020.7
20260901124559 77 0 0.0 0.0 0.00 0.00 0.00 88 1020.8
20260901124043 76 0 0.0 1.0 0.00 0.00 0.00 91 1020.6
20260901123544 76 0 0.0 1.0 0.00 0.00 0.00 92 1020.6
20260901123054 75 0 0.0 1.0 0.00 0.00 0.00 93 1020.6
20260901122545 75 0 0.0 1.0 0.00 0.00 0.00 95 1020.6
20260901122044 74 0 0.0 1.0 0.00 0.00 0.00 96 1020.6
20260901121553 74 0 0.0 1.0 0.00 0.00 0.00 97 1020.6
20260901121044 73 0 0.0 1.0 0.00 0.00 0.00 96 1020.4
20260901120544 72 0 0.0 0.0 0.00 0.00 0.00 96 1020.4
20260901120103 73 0 0.0 0.0 0.00 0.00 0.00 98 1020.4
20260901115544 72 0 0.0 0.0 0.00 0.00 0.00 97 1020.4
20260901115048 71 0 0.0 0.0 0.00 0.00 0.00 96 1020.4
20260901114551 71 0 0.0 0.0 0.00 0.00 0.00 97 1020.3
20260901114047 71 0 0.0 0.0 0.00 0.00 0.00 97 1020.3
20260901113544 70 0 0.0 0.0 0.00 0.00 0.00 97 1020.3
20260901113057 69 0 0.0 0.0 0.00 0.00 0.00 97 1020.3
20260901112548 69 0 0.0 0.0 0.00 0.00 0.00 97 1020.2
20260901112044 69 0 0.0 0.0 0.00 0.00 0.00 97 1020.1
20260901111556 69 0 0.0 0.0 0.00 0.00 0.00 97 1020.0
20260901111045 69 0 0.0 0.0 0.00 0.00 0.00 97 1019.9
20260901110545 69 0 0.0 0.0 0.00 0.00 0.00 97 1019.8
20260901110054 69 0 0.0 0.0 0.00 0.00 0.00 97 1019.7
20260901105546 69 0 0.0 0.0 0.00 0.00 0.00 97 1019.7
20260901105046 69 0 0.0 0.0 0.00 0.00 0.00 97 1019.6
20260901104552 69 0 0.0 0.0 0.00 0.00 0.00 97 1019.6
20260901104046 69 0 0.0 0.0 0.00 0.00 0.00 97 1019.6
20260901103547 68 0 0.0 0.0 0.00 0.00 0.00 97 1019.6
20260901103101 68 0 0.0 0.0 0.00 0.00 0.00 97 1019.5
20260901102547 68 0 0.0 0.0 0.00 0.00 0.00 96 1019.5
20260901102047 68 0 0.0 0.0 0.00 0.00 0.00 96 1019.5
20260901101610 68 0 0.0 0.0 0.00 0.00 0.00 97 1019.5
20260901101048 69 0 0.0 0.0 0.00 0.00 0.00 96 1019.5
20260901100550 69 0 0.0 0.0 0.00 0.00 0.00 96 1019.4
20260901100059 69 0 0.0 0.0 0.00 0.00 0.00 97 1019.5
20260901095546 69 0 0.0 0.0 0.00 0.00 0.00 97 1019.5
20260901095046 69 0 0.0 0.0 0.00 0.00 0.00 96 1019.3
20260901094603 69 0 0.0 0.0 0.00 0.00 0.00 96 1019.4
20260901094047 69 0 0.0 0.0 0.00 0.00 0.00 96 1019.5
20260901093549 69 0 0.0 0.0 0.00 0.00 0.00 96 1019.5
20260901093107 69 0 0.0 0.0 0.00 0.00 0.00 96 1019.4
20260901092546 69 0 0.0 0.0 0.00 0.00 0.00 96 1019.4
20260901092046 69 0 0.0 0.0 0.00 0.00 0.00 96 1019.4
20260901091628 69 0 0.0 0.0 0.00 0.00 0.00 96 1019.4
20260901091046 69 0 0.0 0.0 0.00 0.00 0.00 96 1019.4
20260901090545 69 0 0.0 0.0 0.00 0.00 0.00 96 1019.3
20260901085546 70 0 0.0 0.0 0.00 0.00 0.00 96 1019.3
20260901085046 70 0 0.0 0.0 0.00 0.00 0.00 96 1019.5
20260901084602 70 0 0.0 0.0 0.00 0.00 0.00 96 1019.6
20260901084047 70 0 0.0 0.0 0.00 0.00 0.00 97 1019.6
20260901083546 70 0 0.0 0.0 0.00 0.00 0.00 96 1019.6
20260901083058 70 0 0.0 0.0 0.00 0.00 0.00 96 1019.6
20260901082545 70 0 0.0 0.0 0.00 0.00 0.00 97 1019.5
20260901082045 70 0 0.0 0.0 0.00 0.00 0.00 96 1019.6
20260901081554 70 0 0.0 0.0 0.00 0.00 0.00 96 1019.4
20260901081046 70 0 0.0 0.0 0.00 0.00 0.00 96 1019.5
20260901080546 70 0 0.0 0.0 0.00 0.00 0.00 96 1019.4
20260901080105 70 0 0.0 0.0 0.00 0.00 0.00 96 1019.5
20260901075548 70 0 0.0 0.0 0.00 0.00 0.00 96 1019.5
20260901075047 70 0 0.0 0.0 0.00 0.00 0.00 96 1019.5
20260901074619 70 0 0.0 0.0 0.00 0.00 0.00 96 1019.5
20260901074046 70 0 0.0 0.0 0.00 0.00 0.00 96 1019.5
20260901073548 70 0 0.0 0.0 0.00 0.00 0.00 96 1019.5
20260901073055 70 0 0.0 0.0 0.00 0.00 0.00 96 1019.5
20260901072547 70 0 0.0 0.0 0.00 0.00 0.00 96 1019.6
20260901072046 70 0 0.0 0.0 0.00 0.00 0.00 96 1019.7
20260901071606 70 0 0.0 0.0 0.00 0.00 0.00 96 1019.8
20260901071045 70 0 0.0 0.0 0.00 0.00 0.00 96 1019.9
20260901070547 70 0 0.0 0.0 0.00 0.00 0.00 96 1020.0
20260901070112 70 0 0.0 0.0 0.00 0.00 0.00 96 1019.8
20260901065546 70 0 0.0 0.0 0.00 0.00 0.00 96 1019.9
20260901065046 70 0 0.0 0.0 0.00 0.00 0.00 96 1019.9
20260901064601 70 0 0.0 0.0 0.00 0.00 0.00 96 1019.9
20260901064046 70 0 0.0 0.0 0.00 0.00 0.00 96 1019.9
20260901063545 70 0 0.0 0.0 0.00 0.00 0.00 96 1020.0
20260901063119 70 0 0.0 0.0 0.00 0.00 0.00 96 1020.1
20260901062548 70 0 0.0 0.0 0.00 0.00 0.00 96 1020.1
20260901062047 70 0 0.0 0.0 0.00 0.00 0.00 95 1020.2
20260901061605 70 0 0.0 0.0 0.00 0.00 0.00 95 1020.1
20260901061047 70 0 0.0 0.0 0.00 0.00 0.00 95 1020.3
20260901060550 70 0 0.0 0.0 0.00 0.00 0.00 95 1020.2
20260901060107 70 0 0.0 0.0 0.00 0.00 0.00 95 1020.2
20260901055546 70 0 0.0 0.0 0.00 0.00 0.00 95 1020.1
20260901055049 71 0 0.0 0.0 0.00 0.00 0.00 95 1020.3
20260901054606 71 0 0.0 0.0 0.00 0.00 0.00 95 1020.3
20260901054046 71 0 0.0 0.0 0.00 0.00 0.00 95 1020.3
20260901053547 71 0 0.0 0.0 0.00 0.00 0.00 95 1020.4
20260901053116 71 0 0.0 0.0 0.00 0.00 0.00 95 1020.4
20260901052547 71 0 0.0 0.0 0.00 0.00 0.00 95 1020.4
20260901052046 71 0 0.0 0.0 0.00 0.00 0.00 95 1020.2
20260901051608 71 0 0.0 0.0 0.00 0.00 0.00 95 1020.3
20260901051046 71 0 0.0 0.0 0.00 0.00 0.00 95 1020.3
20260901050546 71 0 0.0 0.0 0.00 0.00 0.00 95 1020.3
20260901050108 71 0 0.0 0.0 0.00 0.00 0.00 95 1020.3
20260901045552 71 0 0.0 0.0 0.00 0.00 0.00 95 1020.3
20260901045046 71 0 0.0 0.0 0.00 0.00 0.00 95 1020.2
20260901044602 71 0 0.0 0.0 0.00 0.00 0.00 95 1020.3
20260901044050 71 0 0.0 0.0 0.00 0.00 0.00 95 1020.3
20260901043546 71 0 0.0 0.0 0.00 0.00 0.00 95 1020.4
20260901043101 71 0 0.0 0.0 0.00 0.00 0.00 94 1020.3
20260901042546 71 0 0.0 0.0 0.00 0.00 0.00 95 1020.4
20260901042046 71 0 0.0 0.0 0.00 0.00 0.00 94 1020.3
20260901041611 71 0 0.0 0.0 0.00 0.00 0.00 94 1020.4
20260901041048 71 0 0.0 0.0 0.00 0.00 0.00 94 1020.3
20260901040546 71 0 0.0 0.0 0.00 0.00 0.00 94 1020.3
20260901040104 72 0 0.0 0.0 0.00 0.00 0.00 94 1020.3
20260901035546 72 0 0.0 0.0 0.00 0.00 0.00 94 1020.2
20260901035045 72 0 0.0 0.0 0.00 0.00 0.00 94 1020.2
20260901034559 72 0 0.0 0.0 0.00 0.00 0.00 94 1020.2
20260901034046 72 0 0.0 0.0 0.00 0.00 0.00 94 1020.2
20260901033546 72 0 0.0 0.0 0.00 0.00 0.00 94 1020.2
20260901033106 72 0 0.0 0.0 0.00 0.00 0.00 94 1020.2
20260901032548 72 0 0.0 0.0 0.00 0.00 0.00 94 1020.2
20260901032046 72 0 0.0 0.0 0.00 0.00 0.00 94 1020.2
20260901031600 72 0 0.0 0.0 0.00 0.00 0.00 94 1020.3
20260901031041 72 0 0.0 0.0 0.00 0.00 0.00 94 1020.3
20260901030544 72 0 0.0 0.0 0.00 0.00 0.00 94 1020.2
20260901030106 72 0 0.0 0.0 0.00 0.00 0.00 94 1020.3
20260901025545 72 0 0.0 0.0 0.00 0.00 0.00 93 1020.2
20260901025045 72 0 0.0 0.0 0.00 0.00 0.00 93 1020.2
20260901024559 72 0 0.0 0.0 0.00 0.00 0.00 93 1020.2
20260901024044 72 0 0.0 0.0 0.00 0.00 0.00 93 1020.2
20260901023541 72 0 0.0 0.0 0.00 0.00 0.00 93 1020.2
20260901023054 72 0 0.0 1.0 0.00 0.00 0.00 93 1020.0
20260901022546 72 0 0.0 1.0 0.00 0.00 0.00 93 1020.1
20260901022045 72 0 0.0 0.0 0.00 0.00 0.00 93 1020.1
20260901021552 72 0 0.0 0.0 0.00 0.00 0.00 92 1020.1
20260901021045 73 0 0.0 0.0 0.00 0.00 0.00 93 1020.1
20260901020545 73 0 0.0 0.0 0.00 0.00 0.00 92 1020.1
20260901020100 73 0 0.0 0.0 0.00 0.00 0.00 92 1020.1
20260901015543 73 0 0.0 0.0 0.00 0.00 0.00 92 1020.0
20260901015044 73 0 0.0 0.0 0.00 0.00 0.00 92 1020.0
20260901014601 73 0 0.0 0.0 0.00 0.00 0.00 92 1020.0
20260901014045 73 0 0.0 0.0 0.00 0.00 0.00 92 1020.0
20260901013545 73 0 0.0 0.0 0.00 0.00 0.00 92 1019.9
20260901013055 73 0 0.0 0.0 0.00 0.00 0.00 92 1019.9
20260901012544 73 0 0.0 0.0 0.00 0.00 0.00 92 1019.7
20260901012044 73 0 0.0 0.0 0.00 0.00 0.00 91 1019.6
20260901011605 73 0 0.0 0.0 0.00 0.00 0.00 91 1019.6
20260901011045 74 0 0.0 0.0 0.00 0.00 0.00 91 1019.6
20260901010547 74 0 0.0 0.0 0.00 0.00 0.00 91 1019.5
20260901010058 74 0 0.0 0.0 0.00 0.00 0.00 90 1019.4
20260901005545 74 0 0.0 0.0 0.00 0.00 0.00 90 1019.5
20260901005045 74 0 0.0 0.0 0.00 0.00 0.00 90 1019.3
20260901004555 74 0 0.0 0.0 0.00 0.00 0.00 89 1019.3
20260901004044 74 0 0.0 0.0 0.00 0.00 0.00 89 1019.3
20260901003545 75 0 0.0 0.0 0.00 0.00 0.00 89 1019.3